Total_Precipitation_Accumulation
1.67 1.68 2.61 3.83 4.52 3.64 3.20 3.00 2.55 2.24 1.70 1.34 1.10 1.14 1.57 1.99 2.24 2.60 2.65 2.68 1.77 1.55 1.82 2.46 3.21 3.10 2.87 2.79 2.83 2.75 2.57 2.31 2.16 2.15 2.19 2.22 2.21 2.19 2.15 2.17 2.15 2.21 2.12 2.00 2.18 2.47 2.48 2.44 2.44
1.29 2.05 3.21 4.36 4.01 3.13 3.19 2.90 2.50 2.06 1.49 1.10 0.89 0.88 0.99 0.97 0.89 1.46 2.69 2.86 1.71 1.40 1.59 1.92 2.86 2.86 2.83 2.82 2.63 2.58 2.32 2.06 1.94 1.94 1.96 2.00 2.10 2.31 2.40 2.37 2.33 2.32 2.09 1.90 1.94 2.35 2.47 2.44 2.32
1.75 2.78 3.84 4.10 3.14 2.91 3.20 2.89 2.31 1.53 1.11 0.97 0.91 0.81 0.90 1.17 1.21 1.79 2.59 2.13 1.58 1.41 1.65 2.34 2.97 2.78 2.77 2.65 2.44 2.42 2.28 2.05 1.94 1.92 1.92 2.03 2.28 2.43 2.45 2.48 2.42 2.30 2.11 2.00 2.09 2.45 2.36 2.34 2.24
2.27 3.31 3.70 3.35 2.75 2.47 2.49 2.42 2.00 1.49 1.13 0.79 0.80 0.92 0.90 1.29 1.48 1.79 1.95 1.56 1.43 1.44 1.65 2.34 2.74 2.51 2.46 2.43 2.36 2.25 2.27 2.27 2.06 1.88 1.94 2.18 2.58 2.62 2.64 2.66 2.39 2.30 2.17 2.19 2.28 2.45 2.43 2.36 2.32
2.70 3.36 3.39 3.12 2.74 2.45 2.06 1.89 1.79 1.65 1.31 0.93 0.88 1.09 1.38 1.89 1.78 1.63 1.60 1.41 1.29 1.25 1.39 1.89 2.41 2.25 2.20 2.23 2.24 2.14 2.18 2.27 2.16 1.94 2.07 2.36 2.73 2.80 2.72 2.55 2.32 2.31 2.28 2.33 2.52 2.56 2.58 2.48 2.33
3.16 3.10 3.21 3.15 2.94 2.60 2.18 1.64 1.49 1.52 1.22 1.00 0.98 1.17 1.82 2.28 2.10 1.93 1.61 1.61 1.44 1.27 1.22 1.44 1.95 2.08 1.97 2.02 2.18 2.11 2.10 2.18 2.10 2.01 2.06 2.24 2.67 2.69 2.64 2.52 2.35 2.25 2.32 2.54 2.85 2.77 2.63 2.42 2.33
3.08 2.95 2.96 2.60 2.69 2.94 2.30 1.42 1.47 1.49 1.37 1.16 0.90 1.18 1.73 2.07 1.91 1.79 1.59 1.58 1.62 1.55 1.41 1.29 1.37 1.58 1.76 1.91 2.07 2.09 2.06 2.01 1.90 1.99 2.04 2.36 2.82 2.58 2.42 2.44 2.39 2.33 2.40 2.49 2.68 2.58 2.45 2.41 2.41
2.48 2.58 2.52 2.51 2.71 2.89 2.08 1.28 1.16 1.37 1.33 0.92 0.97 1.31 1.58 1.57 1.48 1.47 1.53 1.68 1.68 1.63 1.49 1.27 1.17 1.22 1.44 1.56 1.75 2.01 2.08 1.98 1.85 1.91 2.08 2.36 2.81 2.57 2.35 2.25 2.44 2.55 2.50 2.60 2.74 2.58 2.41 2.43 2.34
2.07 2.58 2.86 2.89 2.79 2.46 1.68 1.34 1.10 0.98 0.99 0.90 0.91 1.02 1.13 1.03 1.12 1.28 1.30 1.36 1.49 1.42 1.31 1.20 1.14 1.19 1.32 1.42 1.51 1.89 1.93 1.82 1.63 1.63 1.92 2.05 2.29 2.25 2.25 2.33 2.68 2.70 2.70 2.77 2.86 2.82 2.59 2.32 2.21
2.12 2.58 2.62 2.10 1.71 1.64 1.41 1.26 1.12 1.20 1.26 1.07 1.04 1.05 1.08 1.08 1.13 1.15 1.14 1.16 1.20 1.14 1.02 0.98 0.97 1.06 1.18 1.23 1.62 1.95 1.73 1.65 1.44 1.47 1.55 1.72 2.09 2.37 2.10 2.34 2.80 2.76 2.70 2.65 2.78 2.79 2.42 1.91 1.61
1.74 2.14 1.81 1.55 1.27 1.08 1.14 1.13 0.91 1.10 1.33 1.13 1.08 1.05 1.10 1.20 1.17 1.17 1.13 1.01 0.97 0.90 0.82 0.77 0.71 0.71 0.80 1.05 1.41 1.73 1.87 1.88 1.88 1.71 1.61 1.70 1.63 1.76 1.67 1.63 1.82 1.90 1.96 1.91 2.05 2.20 1.93 1.63 1.56
1.65 1.62 1.45 1.43 1.05 1.02 1.02 0.96 0.92 0.98 1.10 0.98 1.03 0.94 0.95 1.06 1.08 1.06 1.11 1.01 0.89 0.84 0.80 0.71 0.67 0.62 0.65 0.74 0.94 1.17 1.36 1.48 1.58 1.50 1.37 1.51 1.50 1.53 1.56 1.48 1.39 1.36 1.44 1.57 1.59 1.75 1.75 1.53 1.43
1.72 1.68 1.37 1.13 1.00 0.95 0.88 0.86 0.87 0.97 0.93 0.83 0.93 1.00 1.03 1.04 1.05 1.10 1.17 1.17 1.01 0.97 0.94 0.84 0.72 0.68 0.68 0.74 0.80 0.88 1.07 1.20 1.25 1.34 1.30 1.33 1.47 1.52 1.48 1.35 1.29 1.17 1.24 1.38 1.49 1.52 1.57 1.60 1.53
1.53 1.51 1.52 1.34 1.13 1.03 1.02 0.89 0.80 0.99 0.96 0.91 1.00 1.09 1.05 1.07 0.98 0.98 1.04 1.14 1.14 1.09 1.01 0.96 0.84 0.81 0.77 0.76 0.79 0.86 0.95 1.00 1.04 1.05 1.06 1.18 1.37 1.41 1.43 1.40 1.40 1.32 1.32 1.41 1.42 1.36 1.49 1.67 1.60
1.38 1.64 1.67 1.51 1.24 1.11 1.14 1.28 0.99 0.94 1.01 1.03 1.15 1.09 1.00 1.02 0.96 0.93 0.92 0.98 1.05 1.05 0.98 0.97 0.95 0.96 0.94 0.91 0.83 0.83 0.93 1.01 1.02 0.99 0.92 0.96 1.11 1.21 1.31 1.33 1.30 1.33 1.44 1.49 1.54 1.36 1.41 1.46 1.46
1.75 2.14 2.29 1.68 1.41 1.20 1.39 1.61 1.15 1.07 1.11 1.07 1.08 1.05 0.97 0.94 0.89 0.88 0.90 0.88 0.88 0.86 0.85 0.92 0.91 0.94 0.98 0.98 0.97 0.98 1.00 1.09 1.04 1.02 0.95 0.91 0.98 1.11 1.28 1.30 1.26 1.26 1.44 1.58 1.67 1.57 1.56 1.54 1.53
2.03 2.14 2.03 1.69 1.37 1.26 1.35 1.36 1.11 1.08 1.12 0.96 0.94 0.92 0.87 0.80 0.78 0.74 0.77 0.82 0.81 0.78 0.79 0.80 0.85 0.83 0.90 0.96 0.99 1.10 1.14 1.17 1.13 1.10 1.02 1.00 1.07 1.19 1.38 1.50 1.49 1.44 1.48 1.54 1.54 1.63 1.67 1.66 1.67
1.70 1.59 1.48 1.43 1.19 1.14 1.18 1.03 0.91 0.96 0.96 0.86 0.76 0.69 0.68 0.69 0.64 0.62 0.66 0.71 0.73 0.76 0.76 0.75 0.79 0.80 0.83 0.95 1.05 1.23 1.36 1.35 1.34 1.24 1.16 1.20 1.35 1.51 1.66 1.67 1.76 1.78 1.71 1.72 1.69 1.76 1.74 1.67 1.74
1.11 1.22 1.25 1.16 0.89 0.93 0.96 0.85 0.83 0.85 0.86 0.79 0.69 0.58 0.56 0.58 0.56 0.54 0.59 0.65 0.67 0.71 0.73 0.74 0.72 0.78 0.82 0.86 0.99 1.23 1.50 1.61 1.71 1.62 1.40 1.34 1.48 1.78 2.04 1.99 2.07 2.14 2.09 2.07 2.05 2.29 2.24 1.98 1.79
1.06 1.27 1.24 1.11 0.79 0.75 0.81 0.75 0.67 0.68 0.74 0.64 0.60 0.58 0.52 0.52 0.48 0.45 0.48 0.53 0.56 0.59 0.65 0.70 0.69 0.76 0.79 0.83 1.01 1.19 1.34 1.36 1.51 1.62 1.56 1.48 1.46 1.65 1.82 2.10 2.25 2.22 2.38 2.49 2.46 2.82 2.97 2.47 2.03
1.04 1.07 1.04 1.02 0.83 0.74 0.74 0.81 0.63 0.57 0.60 0.55 0.49 0.50 0.46 0.47 0.48 0.46 0.45 0.49 0.50 0.50 0.51 0.55 0.59 0.67 0.79 0.90 1.11 1.34 1.57 1.65 1.66 1.55 1.62 1.63 1.53 1.60 1.74 1.89 2.05 2.09 2.26 2.45 2.58 2.90 3.44 3.21 2.54
0.98 0.71 0.65 0.73 0.94 1.02 0.83 1.06 0.74 0.61 0.65 0.57 0.47 0.43 0.40 0.43 0.46 0.55 0.51 0.51 0.48 0.48 0.50 0.53 0.62 0.76 0.95 1.13 1.34 1.57 1.76 1.81 1.68 1.66 1.69 1.58 1.49 1.47 1.60 1.74 1.85 1.98 2.04 2.24 2.34 2.48 3.07 3.48 3.15
0.66 0.55 0.54 0.63 0.85 0.85 0.65 0.79 0.72 0.60 0.72 0.65 0.53 0.46 0.41 0.40 0.44 0.48 0.49 0.53 0.55 0.58 0.65 0.70 0.84 1.06 1.31 1.50 1.75 2.03 1.99 1.87 1.77 1.71 1.67 1.62 1.60 1.56 1.56 1.73 1.79 1.81 1.89 2.04 2.38 2.66 2.97 3.23 3.26
0.47 0.56 0.64 0.72 0.92 0.92 0.57 0.67 0.74 0.57 0.60 0.65 0.59 0.50 0.42 0.38 0.45 0.55 0.63 0.74 0.83 0.87 1.05 1.26 1.47 1.61 1.70 1.81 1.94 2.05 2.01 2.01 1.94 1.74 1.64 1.61 1.66 1.72 1.72 1.76 1.79 1.76 1.81 1.93 2.19 2.51 2.75 3.08 3.33
0.49 0.85 1.24 1.27 1.24 0.89 0.45 0.65 0.73 0.53 0.45 0.51 0.53 0.44 0.38 0.40 0.50 0.66 0.85 0.99 1.14 1.31 1.49 1.62 1.77 1.92 1.87 1.82 1.86 1.89 1.88 1.85 1.84 1.76 1.68 1.61 1.59 1.65 1.68 1.74 1.86 1.92 1.97 2.10 2.28 2.46 2.41 2.60 3.03
0.53 0.79 1.28 1.42 1.17 0.81 0.59 0.86 0.80 0.57 0.45 0.40 0.33 0.30 0.40 0.55 0.68 0.81 0.89 1.03 1.22 1.43 1.53 1.54 1.62 1.75 1.74 1.69 1.66 1.65 1.69 1.69 1.64 1.55 1.51 1.55 1.63 1.61 1.55 1.58 1.67 1.78 1.96 2.02 2.10 2.16 2.13 2.24 2.49
0.52 0.58 0.64 0.92 0.78 0.76 0.78 0.91 0.81 0.54 0.46 0.41 0.36 0.38 0.54 0.75 0.95 1.12 1.24 1.37 1.43 1.51 1.61 1.51 1.51 1.59 1.60 1.55 1.50 1.54 1.52 1.56 1.56 1.47 1.46 1.45 1.45 1.37 1.26 1.26 1.33 1.40 1.47 1.58 1.74 1.85 1.94 2.02 2.14
0.42 0.55 0.75 1.10 1.25 1.21 1.06 1.05 0.95 0.72 0.61 0.64 0.70 0.78 0.83 0.93 1.19 1.50 1.79 1.96 1.81 1.58 1.52 1.50 1.43 1.44 1.54 1.57 1.51 1.49 1.57 1.57 1.53 1.51 1.44 1.41 1.43 1.33 1.22 1.16 1.13 1.12 1.08 1.13 1.32 1.52 1.63 1.73 1.89
0.43 0.60 0.78 1.03 1.15 1.45 1.63 1.51 1.14 1.13 1.12 1.16 1.24 1.27 1.28 1.37 1.35 1.52 1.76 1.95 1.89 1.58 1.35 1.38 1.46 1.47 1.50 1.51 1.52 1.52 1.50 1.40 1.38 1.40 1.36 1.32 1.33 1.36 1.32 1.21 1.14 1.22 1.20 1.16 1.24 1.28 1.34 1.41 1.55
0.53 0.68 0.89 1.28 1.21 1.19 1.49 1.53 1.19 1.17 1.20 1.28 1.43 1.47 1.47 1.38 1.28 1.28 1.35 1.42 1.50 1.40 1.20 1.15 1.30 1.43 1.43 1.42 1.45 1.45 1.35 1.25 1.24 1.24 1.16 1.03 0.96 0.96 1.07 1.19 1.12 1.08 1.09 1.11 1.19 1.21 1.25 1.30 1.39